Regional Weather Roundup
Issued by NWS

Home | Current Version | Previous Version | Text Only | Print | Product List | Glossary On
Versions: 1 2 3 4 5 6 7 8 9 10 11 12 13 14 15 16 17 18 19 20 21 22 23 24 25 26 27 28 29 30 31 32 33 34 35 36 37 38 39 40 41 42 43 44 45 46 47 48 49 50
000
ASUS43 KOAX 120310
RWRNE

WEATHER ROUNDUP FOR NEBRASKA
NATIONAL WEATHER SERVICE OMAHA NE
900 PM CST MON DEC 11 2017

NOTES: SATELLITE DATA IS BEING USED TO AUGMENT CLOUD COVER ABOVE
       12000 FEET.
       "FAIR" INDICATES FEW OR NO CLOUDS BELOW 12,000 FEET WITH NO
       SIGNIFICANT WEATHER AND/OR OBSTRUCTIONS TO VISIBILITY.


NEZ001>004-019>022-054>056-120400-
NEBRASKA PANHANDLE

CITY           SKY/WX    TMP DP  RH WIND       PRES   REMARKS
SCOTTSBLUFF    CLEAR     27  13  55 NW9       30.41S WCI  18
ALLIANCE       CLOUDY    20  12  71 NW8       30.40R WCI  10
CHADRON        CLOUDY    20  13  74 S5        30.42R WCI  13
GORDON         FAIR      27  23  84 N7        30.38F WCI  20
KIMBALL        CLOUDY    30  11  45 NW6       30.42R WCI  24
SIDNEY         CLOUDY    27  10  49 N9        30.41R WCI  18
$$

NEZ057>060-069>072-079>082-120400-
SOUTHWEST NEBRASKA

CITY           SKY/WX    TMP DP  RH WIND       PRES   REMARKS
NORTH PLATTE   CLEAR     25  20  81 W8        30.38S WCI  16
IMPERIAL       CLEAR     31  20  63 NW8       30.40R WCI  23
LEXINGTON      CLOUDY    34  27  76 NW7       30.37R WCI  28
MCCOOK         CLEAR     30  22  72 NW9       30.39R WCI  22
OGALLALA       CLEAR     23  16  74 W8        30.40R WCI  13
$$

NEZ005>010-023>029-035>040-094-120400-
NORTH CENTRAL NEBRASKA

CITY           SKY/WX    TMP DP  RH WIND       PRES   REMARKS
VALENTINE      CLOUDY    38  29  70 NW6       30.37R WCI  33
AINSWORTH      CLOUDY    34  33  94 N9        30.37R WCI  27
BROKEN BOW     CLOUDY    38  31  76 N14       30.35R WCI  30
O`NEILL        CLEAR     31  27  85 NW10      30.34R WCI  22
ORD            CLOUDY    36  32  85 N13G20    30.34S WCI  27
THEDFORD       CLOUDY    39  29  67 N10G16    30.38R WCI  32
$$

NEZ041-046>049-061>064-073>077-083>087-120400-
SOUTH CENTRAL NEBRASKA

CITY           SKY/WX    TMP DP  RH WIND       PRES   REMARKS
GRAND ISLAND   CLOUDY    39  27  62 N20G29    30.34R WCI  29
AURORA         CLOUDY    38  25  60 N17       30.33R WCI  28
HASTINGS       CLOUDY    38  29  70 N18G29    30.34R WCI  28
HEBRON         CLOUDY    42  30  63 N17G24    30.31S
HOLDREGE       CLOUDY    37  30  77 NW10      30.36R WCI  29
KEARNEY        CLOUDY    38  30  73 N17       30.36R WCI  28
YORK           PTCLDY    36  27  69 N12G18    30.32R WCI  27
$$

NEZ011>018-030>034-042>045-120400-
NORTHEAST NEBRASKA

CITY           SKY/WX    TMP DP  RH WIND       PRES   REMARKS
NORFOLK        CLEAR     29  26  89 NW12      30.31R WCI  19
ALBION         PTCLDY    35  27  73 N10G16    30.32S WCI  27
BLAIR          CLEAR     32  18  55 NW23G33   30.25S WCI  19
COLUMBUS       CLEAR     33  24  69 N12       30.32R WCI  24
FREMONT        CLEAR     32  24  71 NW13G23   30.30R WCI  22
TEKAMAH        CLEAR     29  18  63 N15       30.29R WCI  18
WAYNE          CLEAR     28  21  75 N16       30.31R WCI  16
$$

NEZ050>053-065>068-078-088>093-120400-
SOUTHEAST NEBRASKA

CITY           SKY/WX    TMP DP  RH WIND       PRES   REMARKS
LINCOLN        CLEAR     36  28  73 N20G26    30.31R WCI  25
OMAHA EPPLEY   CLEAR     32  21  64 NW21      30.26R WCI  20
BEATRICE       MOCLDY    39  27  61 N25G32    30.29R WCI  28
FALLS CITY     CLEAR     37  23  56 N18G33    30.24R WCI  27
NEBRASKA CITY  CLEAR     34  26  71 N22G30    30.26R WCI  23
PLATTSMOUTH    CLEAR     34  21  59 NW20G26   30.26R WCI  22
$$

NEZ044-045-051>053-067-120400-
OMAHA AREA

CITY           SKY/WX    TMP DP  RH WIND       PRES   REMARKS
OMAHA EPPLEY   CLEAR     32  21  64 NW21      30.26R WCI  20
BLAIR          CLEAR     32  18  55 NW23G33   30.25S WCI  19
FREMONT        CLEAR     32  24  71 NW13G23   30.30R WCI  22
MILLARD        CLEAR     35  22  60 NW15G26   30.28R WCI  25
OFFUTT AFB     CLEAR     33  17  50 NW21G29   30.26R WCI  22
PLATTSMOUTH    CLEAR     34  21  59 NW20G26   30.26R WCI  22
WAHOO          FAIR      33  26  75 NW18G25   30.29S WCI  21
$$



USA.gov is the U.S. government's official web portal to all federal, state and local government web resources and services.